Home   Weather   Tallahassee   Past weeks
Flag for USA

Past Weather in Tallahassee, Florida, USA — Yesterday and Last 2 Weeks

Now
41 °F

Passing clouds.


Feels Like: 36 °F
Forecast: 65 / 35 °F
Wind: 8 mph from East

Location: Tallahassee Regional Airport

Current Time: Jan 22, 2019 at 6:29:51 am

Latest Report: Jan 22, 2019 at 5:53 am


Visibility: 10 mi

Pressure: 30.39 "Hg

Humidity: 70%

Dew Point: 32 °F

Location of TallahasseeLocation

Past Weather in Tallahassee — Graph

°F

Tallahassee Temperature Yesterday

Maximum temperature yesterday: 56 °F (at 3:53 pm)
Minimum temperature yesterday: 32 °F (at 5:53 am)
Average temperature yesterday: 43 °F

High & Low Weather Summary for the Past Weeks

 TemperatureHumidityPressure
High73 °F (Jan 8, 2:53 pm)100% (Jan 8, 4:31 am)30.41 "Hg (Jan 8, 4:31 am)
Low30 °F (Jan 11, 6:53 am)26% (Jan 9, 2:53 pm)29.67 "Hg (Jan 19, 8:53 pm)
Average52 °F76%30.16 "Hg
* Reported Jan 7 4:53 am — Jan 22 4:53 am, Tallahassee. Weather by CustomWeather, © 2019

Note: Actual official high and low records may vary slightly from our data, if they occured in-between our weather recording intervals... More about our weather records

Advertising

Tallahassee Weather History for the Previous 24 Hours

Scroll right to see more
 ConditionsComfort  
Time TempWeatherWind HumidityBarometerVisibility
4:53 am
Tue, Jan 22
41 °FClear.10 mph67%30.39 "Hg10 mi
3:53 am40 °FClear.8 mph70%30.40 "Hg10 mi
2:53 am40 °FClear.7 mph73%30.41 "Hg10 mi
1:53 am40 °FClear.6 mph73%30.41 "Hg10 mi
12:53 am41 °FClear.10 mph74%30.41 "Hg10 mi
11:53 pm
Mon, Jan 21
42 °FClear.10 mph68%30.41 "Hg10 mi
10:53 pm43 °FClear.12 mph62%30.40 "Hg10 mi
9:53 pm45 °FClear.10 mph58%30.40 "Hg10 mi
8:53 pm47 °FClear.7 mph54%30.40 "Hg10 mi
7:53 pm47 °FClear.5 mph56%30.38 "Hg10 mi
6:53 pm49 °FClear.8 mph52%30.35 "Hg10 mi
5:53 pm52 °FSunny.6 mph47%30.35 "Hg10 mi
4:53 pm56 °FSunny.6 mph40%30.34 "Hg10 mi
3:53 pm56 °FSunny.8 mph39%30.33 "Hg10 mi
2:53 pm55 °FPassing clouds.7 mph39%30.33 "Hg10 mi
1:53 pm53 °FPassing clouds.9 mph39%30.34 "Hg10 mi
12:53 pm51 °FPassing clouds.8 mph41%30.36 "Hg10 mi
11:53 am47 °FPassing clouds.9 mph44%30.39 "Hg10 mi
10:53 am43 °FPassing clouds.8 mph47%30.40 "Hg10 mi
9:53 am40 °FPassing clouds.10 mph49%30.38 "Hg10 mi
8:53 am36 °FPassing clouds.8 mph64%30.35 "Hg10 mi
7:53 am32 °FSunny.5 mph79%30.34 "Hg10 mi
6:53 am32 °FClear.6 mph75%30.31 "Hg10 mi
Weather by CustomWeather, © 2019

See weather overview